Precipitable_Water
1.12 1.15 1.18 1.20 1.22 1.19 1.18 1.21 1.19 1.17 1.16 1.17 1.18 1.18 1.19 1.20 1.24 1.29 1.31 1.29 1.30 1.29 1.28 1.25 1.21 1.19 1.19 1.18 1.17 1.16 1.15 1.13 1.12 1.10 1.07 1.04 1.00 0.94 0.87 0.80 0.76 0.73 0.71 0.68 0.65 0.61 0.59 0.57 0.56 0.53 0.50 0.45 0.44 0.43 0.41 0.40 0.41 0.42 0.45 0.45 0.44 0.45 0.43 0.41 0.37 0.37 0.40 0.42 0.39 0.38 0.39 0.36 0.32 0.31 0.29 0.30 0.31 0.32 0.31 0.31 0.31 0.31 0.31 0.31 0.31
1.10 1.14 1.19 1.22 1.22 1.21 1.22 1.23 1.20 1.15 1.13 1.16 1.18 1.21 1.20 1.21 1.25 1.27 1.26 1.29 1.29 1.28 1.28 1.25 1.21 1.19 1.17 1.17 1.16 1.15 1.13 1.11 1.09 1.07 1.05 1.03 1.00 0.96 0.90 0.84 0.79 0.74 0.71 0.65 0.62 0.59 0.57 0.54 0.52 0.50 0.48 0.44 0.42 0.40 0.39 0.39 0.40 0.39 0.40 0.41 0.42 0.43 0.45 0.41 0.39 0.36 0.34 0.38 0.36 0.38 0.35 0.35 0.29 0.31 0.29 0.29 0.30 0.31 0.30 0.30 0.31 0.32 0.31 0.31 0.31
1.14 1.18 1.18 1.20 1.22 1.25 1.25 1.22 1.17 1.11 1.11 1.14 1.18 1.21 1.22 1.23 1.26 1.24 1.26 1.28 1.29 1.28 1.27 1.24 1.21 1.18 1.16 1.16 1.15 1.14 1.11 1.08 1.07 1.05 1.03 1.01 0.98 0.95 0.91 0.87 0.82 0.77 0.71 0.64 0.59 0.56 0.53 0.51 0.50 0.48 0.46 0.42 0.41 0.40 0.40 0.39 0.40 0.39 0.39 0.40 0.41 0.42 0.44 0.42 0.38 0.35 0.32 0.32 0.35 0.33 0.32 0.32 0.29 0.28 0.30 0.32 0.32 0.32 0.30 0.30 0.31 0.32 0.33 0.33 0.32
1.17 1.19 1.19 1.21 1.25 1.25 1.22 1.21 1.14 1.08 1.09 1.13 1.17 1.22 1.24 1.24 1.26 1.24 1.26 1.28 1.27 1.27 1.27 1.24 1.20 1.17 1.15 1.15 1.14 1.12 1.10 1.08 1.06 1.04 1.01 0.99 0.96 0.92 0.90 0.87 0.84 0.80 0.73 0.64 0.57 0.53 0.51 0.49 0.48 0.47 0.45 0.42 0.41 0.40 0.40 0.40 0.38 0.38 0.38 0.40 0.42 0.43 0.43 0.41 0.38 0.32 0.31 0.29 0.33 0.32 0.32 0.30 0.29 0.31 0.32 0.33 0.31 0.30 0.31 0.32 0.33 0.32 0.32 0.33 0.32
1.17 1.18 1.20 1.21 1.24 1.22 1.21 1.18 1.09 1.05 1.08 1.12 1.17 1.24 1.25 1.25 1.25 1.23 1.23 1.24 1.27 1.26 1.24 1.24 1.20 1.16 1.14 1.14 1.13 1.11 1.10 1.07 1.03 1.01 1.00 0.98 0.95 0.91 0.87 0.83 0.80 0.76 0.70 0.62 0.56 0.52 0.50 0.49 0.48 0.47 0.44 0.41 0.41 0.40 0.41 0.39 0.39 0.38 0.37 0.40 0.41 0.41 0.39 0.36 0.33 0.30 0.29 0.29 0.31 0.34 0.33 0.30 0.30 0.31 0.33 0.30 0.30 0.30 0.32 0.31 0.32 0.32 0.32 0.34 0.34
1.17 1.18 1.20 1.21 1.21 1.19 1.18 1.13 1.04 1.01 1.06 1.11 1.18 1.24 1.26 1.25 1.23 1.22 1.22 1.22 1.24 1.24 1.23 1.22 1.19 1.16 1.16 1.16 1.14 1.12 1.10 1.07 1.04 1.01 0.98 0.96 0.93 0.88 0.82 0.78 0.74 0.69 0.63 0.58 0.54 0.52 0.51 0.49 0.47 0.46 0.44 0.41 0.41 0.42 0.42 0.41 0.41 0.40 0.40 0.41 0.41 0.39 0.36 0.33 0.31 0.31 0.31 0.31 0.31 0.30 0.30 0.28 0.28 0.30 0.32 0.32 0.29 0.29 0.29 0.31 0.32 0.33 0.32 0.32 0.32
1.15 1.17 1.19 1.21 1.20 1.17 1.14 1.07 1.01 1.00 1.04 1.09 1.20 1.25 1.25 1.24 1.22 1.19 1.21 1.21 1.21 1.21 1.22 1.20 1.20 1.18 1.17 1.16 1.14 1.12 1.09 1.07 1.04 1.00 0.97 0.94 0.87 0.79 0.73 0.70 0.67 0.63 0.59 0.56 0.54 0.53 0.52 0.49 0.47 0.46 0.44 0.43 0.43 0.43 0.44 0.45 0.44 0.44 0.47 0.44 0.43 0.39 0.33 0.31 0.31 0.31 0.32 0.31 0.31 0.29 0.27 0.30 0.29 0.28 0.32 0.34 0.32 0.31 0.29 0.28 0.28 0.31 0.33 0.32 0.30
1.13 1.16 1.18 1.20 1.19 1.16 1.13 1.07 1.01 1.01 1.05 1.11 1.19 1.24 1.26 1.23 1.22 1.21 1.20 1.18 1.19 1.20 1.20 1.19 1.20 1.19 1.17 1.16 1.14 1.12 1.09 1.07 1.04 1.01 0.96 0.89 0.80 0.72 0.67 0.63 0.60 0.58 0.56 0.56 0.55 0.53 0.51 0.50 0.48 0.47 0.46 0.47 0.48 0.49 0.50 0.49 0.50 0.50 0.51 0.48 0.41 0.34 0.30 0.30 0.31 0.31 0.31 0.31 0.28 0.27 0.28 0.27 0.29 0.31 0.33 0.33 0.30 0.31 0.32 0.30 0.27 0.28 0.29 0.32 0.33
1.12 1.15 1.18 1.19 1.17 1.16 1.14 1.06 1.03 1.02 1.05 1.10 1.17 1.21 1.23 1.24 1.23 1.20 1.19 1.18 1.20 1.21 1.22 1.21 1.18 1.16 1.17 1.15 1.13 1.11 1.09 1.07 1.05 1.00 0.92 0.84 0.76 0.68 0.65 0.61 0.59 0.57 0.56 0.56 0.55 0.53 0.51 0.50 0.50 0.50 0.52 0.54 0.55 0.55 0.53 0.50 0.49 0.52 0.54 0.45 0.36 0.31 0.30 0.30 0.30 0.31 0.30 0.28 0.27 0.28 0.27 0.27 0.28 0.29 0.30 0.30 0.29 0.28 0.31 0.32 0.30 0.31 0.31 0.30 0.32
1.12 1.15 1.17 1.19 1.18 1.17 1.11 1.03 1.00 1.00 1.03 1.08 1.14 1.19 1.22 1.24 1.21 1.19 1.19 1.19 1.19 1.19 1.21 1.20 1.18 1.16 1.15 1.14 1.12 1.11 1.09 1.08 1.06 1.00 0.91 0.82 0.74 0.69 0.66 0.63 0.60 0.58 0.57 0.55 0.54 0.54 0.54 0.54 0.55 0.56 0.57 0.58 0.58 0.57 0.52 0.52 0.55 0.52 0.44 0.39 0.33 0.30 0.29 0.29 0.29 0.29 0.28 0.27 0.26 0.27 0.26 0.26 0.28 0.30 0.30 0.32 0.33 0.34 0.32 0.32 0.29 0.30 0.30 0.29 0.31
1.13 1.16 1.17 1.20 1.18 1.16 1.08 0.99 0.99 0.97 1.01 1.08 1.14 1.17 1.20 1.22 1.20 1.18 1.19 1.18 1.15 1.15 1.19 1.18 1.16 1.16 1.16 1.14 1.12 1.11 1.11 1.09 1.05 0.98 0.89 0.81 0.74 0.69 0.65 0.63 0.62 0.60 0.58 0.56 0.54 0.55 0.57 0.59 0.60 0.60 0.61 0.59 0.55 0.53 0.53 0.58 0.57 0.46 0.40 0.38 0.35 0.31 0.28 0.28 0.27 0.28 0.27 0.26 0.27 0.27 0.27 0.27 0.29 0.31 0.32 0.33 0.34 0.33 0.32 0.32 0.31 0.30 0.28 0.24 0.21
1.13 1.16 1.19 1.20 1.16 1.11 1.04 0.99 0.97 0.98 1.02 1.06 1.10 1.15 1.19 1.20 1.18 1.15 1.14 1.14 1.12 1.13 1.15 1.17 1.18 1.17 1.16 1.15 1.13 1.13 1.12 1.09 1.04 0.96 0.87 0.80 0.76 0.71 0.68 0.65 0.63 0.61 0.59 0.59 0.59 0.58 0.57 0.60 0.60 0.59 0.57 0.57 0.56 0.56 0.59 0.61 0.51 0.42 0.38 0.37 0.34 0.32 0.29 0.27 0.27 0.27 0.27 0.26 0.27 0.27 0.28 0.29 0.31 0.33 0.33 0.34 0.34 0.34 0.34 0.33 0.32 0.29 0.28 0.27 0.26
1.15 1.17 1.19 1.18 1.13 1.08 1.03 0.98 0.96 0.98 1.01 1.05 1.09 1.13 1.15 1.15 1.14 1.12 1.10 1.13 1.12 1.09 1.13 1.16 1.17 1.18 1.16 1.13 1.12 1.14 1.12 1.09 1.03 0.94 0.86 0.81 0.77 0.73 0.70 0.67 0.64 0.62 0.60 0.60 0.59 0.58 0.57 0.56 0.56 0.57 0.58 0.59 0.60 0.60 0.62 0.54 0.45 0.41 0.37 0.36 0.34 0.30 0.29 0.31 0.33 0.32 0.31 0.29 0.28 0.28 0.29 0.32 0.32 0.33 0.35 0.35 0.38 0.34 0.34 0.32 0.32 0.31 0.30 0.29 0.29
1.16 1.16 1.18 1.15 1.11 1.07 1.03 0.99 0.97 0.98 1.01 1.04 1.06 1.08 1.10 1.11 1.13 1.15 1.12 1.12 1.11 1.10 1.12 1.15 1.18 1.17 1.15 1.13 1.13 1.14 1.12 1.08 1.02 0.93 0.85 0.82 0.79 0.75 0.72 0.68 0.66 0.63 0.61 0.60 0.59 0.58 0.58 0.57 0.56 0.56 0.58 0.58 0.60 0.61 0.55 0.47 0.44 0.40 0.36 0.34 0.31 0.30 0.32 0.35 0.36 0.37 0.37 0.35 0.32 0.29 0.33 0.35 0.34 0.35 0.37 0.40 0.37 0.35 0.34 0.32 0.32 0.30 0.30 0.30 0.32
1.14 1.15 1.14 1.12 1.10 1.07 1.04 1.00 0.97 0.98 0.99 1.01 1.01 1.03 1.04 1.07 1.10 1.12 1.09 1.07 1.08 1.07 1.11 1.14 1.18 1.18 1.16 1.13 1.13 1.13 1.12 1.08 1.01 0.92 0.85 0.82 0.80 0.76 0.73 0.70 0.68 0.66 0.66 0.66 0.64 0.61 0.60 0.63 0.62 0.58 0.54 0.55 0.59 0.57 0.49 0.45 0.44 0.38 0.33 0.30 0.29 0.30 0.33 0.35 0.36 0.38 0.38 0.40 0.38 0.35 0.35 0.37 0.37 0.38 0.40 0.42 0.41 0.40 0.39 0.36 0.34 0.33 0.33 0.35 0.34
1.11 1.13 1.10 1.09 1.07 1.06 1.04 1.01 0.98 0.98 0.99 1.01 1.01 1.00 1.01 1.02 1.01 1.09 1.08 1.06 1.07 1.12 1.16 1.18 1.19 1.17 1.15 1.12 1.12 1.12 1.11 1.07 1.00 0.91 0.85 0.83 0.80 0.77 0.74 0.72 0.69 0.68 0.68 0.67 0.66 0.68 0.67 0.64 0.60 0.56 0.55 0.56 0.59 0.55 0.49 0.47 0.42 0.35 0.29 0.28 0.29 0.33 0.35 0.39 0.42 0.42 0.42 0.43 0.42 0.40 0.38 0.39 0.40 0.40 0.42 0.43 0.44 0.44 0.42 0.40 0.38 0.35 0.31 0.29 0.28
1.10 1.11 1.09 1.09 1.08 1.08 1.07 1.03 1.00 0.99 1.01 1.01 1.01 1.00 1.00 1.07 1.05 1.05 1.05 1.04 1.04 1.10 1.15 1.18 1.21 1.18 1.13 1.11 1.11 1.12 1.10 1.07 1.00 0.91 0.86 0.83 0.80 0.77 0.76 0.74 0.72 0.70 0.68 0.69 0.69 0.68 0.64 0.62 0.59 0.57 0.58 0.59 0.58 0.52 0.48 0.44 0.39 0.33 0.29 0.28 0.31 0.34 0.36 0.40 0.43 0.44 0.46 0.46 0.45 0.43 0.41 0.39 0.40 0.41 0.42 0.44 0.44 0.44 0.40 0.35 0.32 0.32 0.29 0.26 0.27
1.15 1.15 1.13 1.13 1.12 1.12 1.12 1.10 1.07 1.05 1.05 1.02 1.01 1.03 1.06 1.07 1.03 1.04 1.04 1.03 1.03 1.11 1.20 1.21 1.22 1.20 1.14 1.11 1.14 1.13 1.11 1.08 1.01 0.92 0.86 0.83 0.80 0.78 0.77 0.75 0.73 0.71 0.71 0.71 0.69 0.66 0.64 0.63 0.63 0.62 0.61 0.58 0.55 0.49 0.44 0.40 0.35 0.32 0.30 0.30 0.32 0.33 0.36 0.38 0.41 0.44 0.46 0.47 0.46 0.44 0.43 0.41 0.40 0.40 0.42 0.44 0.45 0.44 0.38 0.32 0.33 0.32 0.29 0.29 0.27
1.20 1.18 1.19 1.22 1.22 1.20 1.20 1.19 1.18 1.15 1.11 1.10 1.10 1.07 1.01 0.99 1.10 1.08 1.03 1.06 1.09 1.17 1.18 1.21 1.22 1.20 1.19 1.18 1.17 1.15 1.12 1.08 1.01 0.93 0.87 0.83 0.81 0.80 0.79 0.78 0.75 0.74 0.73 0.70 0.68 0.66 0.65 0.66 0.66 0.66 0.62 0.57 0.53 0.46 0.40 0.36 0.33 0.32 0.32 0.32 0.32 0.32 0.35 0.37 0.38 0.40 0.41 0.41 0.42 0.41 0.39 0.37 0.37 0.38 0.42 0.44 0.44 0.44 0.41 0.38 0.36 0.33 0.30 0.30 0.30
1.27 1.30 1.30 1.29 1.28 1.28 1.28 1.27 1.27 1.23 1.17 1.15 1.15 1.10 1.03 1.01 1.08 1.12 1.03 1.04 1.08 1.10 1.09 1.15 1.17 1.21 1.25 1.22 1.18 1.16 1.13 1.09 1.04 0.95 0.88 0.84 0.84 0.84 0.84 0.81 0.76 0.75 0.74 0.71 0.67 0.65 0.65 0.66 0.67 0.64 0.59 0.55 0.50 0.44 0.36 0.33 0.32 0.34 0.36 0.34 0.33 0.32 0.37 0.38 0.39 0.40 0.40 0.39 0.38 0.38 0.35 0.33 0.34 0.37 0.40 0.41 0.42 0.44 0.43 0.41 0.38 0.36 0.33 0.32 0.31
1.44 1.43 1.39 1.34 1.31 1.30 1.31 1.30 1.28 1.26 1.22 1.16 1.13 1.05 1.00 1.02 1.09 1.09 0.93 0.94 1.03 1.10 1.11 1.15 1.21 1.23 1.24 1.24 1.23 1.20 1.17 1.13 1.06 0.96 0.90 0.89 0.91 0.89 0.87 0.83 0.82 0.79 0.76 0.71 0.68 0.65 0.63 0.63 0.62 0.60 0.57 0.54 0.50 0.44 0.35 0.32 0.32 0.35 0.36 0.35 0.35 0.35 0.40 0.40 0.40 0.40 0.39 0.38 0.38 0.38 0.35 0.33 0.33 0.36 0.37 0.39 0.41 0.42 0.43 0.42 0.41 0.39 0.36 0.33 0.32
1.30 1.36 1.40 1.38 1.35 1.33 1.31 1.31 1.32 1.29 1.25 1.16 1.04 1.01 1.01 0.99 0.95 0.91 0.96 1.00 1.05 1.11 1.15 1.18 1.20 1.22 1.23 1.23 1.26 1.22 1.20 1.15 1.06 1.04 1.01 1.01 1.03 0.99 0.90 0.87 0.84 0.76 0.71 0.69 0.68 0.67 0.65 0.63 0.60 0.58 0.56 0.55 0.51 0.44 0.38 0.33 0.34 0.36 0.36 0.36 0.38 0.41 0.42 0.40 0.38 0.38 0.38 0.38 0.38 0.37 0.35 0.32 0.30 0.32 0.35 0.37 0.39 0.41 0.42 0.42 0.41 0.40 0.40 0.38 0.36
1.27 1.35 1.40 1.43 1.39 1.38 1.37 1.35 1.34 1.34 1.27 1.20 1.10 1.05 1.03 0.97 0.92 1.04 1.09 1.01 1.03 1.09 1.15 1.17 1.18 1.18 1.15 1.16 1.19 1.21 1.20 1.15 1.09 1.02 1.00 1.00 0.96 0.89 0.84 0.79 0.77 0.76 0.72 0.69 0.68 0.67 0.67 0.65 0.62 0.59 0.56 0.56 0.54 0.48 0.43 0.40 0.41 0.42 0.42 0.44 0.47 0.48 0.47 0.43 0.39 0.37 0.37 0.37 0.36 0.34 0.32 0.29 0.26 0.29 0.33 0.35 0.37 0.40 0.42 0.42 0.42 0.41 0.40 0.41 0.41
1.32 1.37 1.33 1.36 1.33 1.34 1.37 1.36 1.36 1.33 1.31 1.23 1.15 1.13 1.07 0.98 0.94 0.99 1.05 1.05 1.05 1.08 1.12 1.15 1.16 1.15 1.12 1.12 1.11 1.15 1.17 1.16 1.12 1.10 1.04 0.99 0.93 0.87 0.83 0.80 0.79 0.78 0.76 0.73 0.73 0.72 0.70 0.66 0.62 0.59 0.57 0.57 0.55 0.53 0.51 0.49 0.48 0.49 0.49 0.49 0.50 0.50 0.48 0.45 0.42 0.39 0.37 0.35 0.32 0.30 0.28 0.27 0.24 0.26 0.30 0.34 0.36 0.39 0.42 0.43 0.43 0.42 0.41 0.40 0.40
1.19 1.20 1.18 1.14 1.16 1.25 1.27 1.28 1.38 1.36 1.32 1.26 1.14 1.06 1.01 0.99 0.96 1.02 1.07 1.08 1.09 1.10 1.13 1.16 1.15 1.12 1.09 1.07 1.10 1.14 1.15 1.15 1.11 1.11 1.07 0.99 0.92 0.87 0.83 0.81 0.80 0.79 0.77 0.77 0.76 0.75 0.72 0.69 0.65 0.62 0.60 0.59 0.58 0.56 0.55 0.55 0.54 0.54 0.53 0.52 0.52 0.51 0.48 0.45 0.43 0.41 0.37 0.34 0.31 0.29 0.27 0.25 0.24 0.25 0.30 0.34 0.37 0.40 0.42 0.43 0.44 0.44 0.43 0.41 0.40
1.12 1.14 1.18 1.15 1.11 1.18 1.18 1.18 1.21 1.28 1.25 1.20 1.14 1.09 0.99 1.00 1.05 1.08 1.09 1.13 1.15 1.14 1.14 1.13 1.11 1.09 1.05 1.09 1.13 1.12 1.14 1.11 1.10 1.08 1.04 0.97 0.91 0.87 0.86 0.84 0.82 0.81 0.81 0.82 0.80 0.77 0.74 0.71 0.67 0.64 0.61 0.60 0.59 0.57 0.55 0.53 0.54 0.55 0.55 0.54 0.52 0.50 0.47 0.45 0.43 0.40 0.37 0.34 0.31 0.28 0.25 0.24 0.23 0.25 0.30 0.34 0.36 0.37 0.40 0.40 0.41 0.41 0.41 0.39 0.37
1.10 1.12 1.12 1.12 1.09 1.09 1.13 1.17 1.21 1.25 1.24 1.18 1.11 1.03 0.96 0.99 1.09 1.12 1.19 1.17 1.19 1.15 1.13 1.12 1.09 1.05 1.05 1.06 1.04 1.11 1.10 1.07 1.05 1.04 1.01 0.95 0.90 0.88 0.88 0.86 0.83 0.83 0.84 0.83 0.80 0.78 0.76 0.72 0.68 0.64 0.61 0.60 0.60 0.59 0.58 0.58 0.57 0.57 0.55 0.53 0.52 0.50 0.48 0.45 0.42 0.39 0.36 0.33 0.30 0.28 0.26 0.24 0.25 0.25 0.27 0.31 0.34 0.37 0.40 0.40 0.40 0.40 0.41 0.40 0.38
1.06 1.08 1.11 1.11 1.07 1.09 1.12 1.16 1.21 1.23 1.22 1.15 1.03 0.98 0.99 1.02 1.07 1.12 1.16 1.19 1.18 1.15 1.14 1.11 1.08 1.08 1.08 1.05 1.05 1.10 1.08 1.05 1.02 0.98 0.94 0.91 0.88 0.87 0.87 0.85 0.84 0.83 0.82 0.82 0.81 0.81 0.79 0.77 0.73 0.69 0.67 0.65 0.63 0.61 0.59 0.59 0.58 0.57 0.55 0.54 0.52 0.52 0.51 0.50 0.48 0.44 0.40 0.37 0.33 0.30 0.26 0.24 0.22 0.23 0.27 0.30 0.33 0.36 0.40 0.40 0.40 0.39 0.40 0.39 0.36
1.07 1.08 1.11 1.11 1.07 1.10 1.12 1.12 1.17 1.21 1.20 1.16 1.13 1.14 1.16 1.15 1.17 1.24 1.29 1.25 1.24 1.19 1.17 1.16 1.15 1.13 1.10 1.09 1.04 0.98 0.98 0.94 0.96 1.02 1.02 0.98 0.91 0.88 0.87 0.87 0.87 0.86 0.86 0.85 0.83 0.83 0.82 0.80 0.78 0.73 0.68 0.63 0.60 0.58 0.58 0.59 0.59 0.57 0.54 0.53 0.52 0.51 0.51 0.51 0.48 0.46 0.45 0.43 0.38 0.32 0.28 0.26 0.24 0.24 0.27 0.29 0.32 0.36 0.40 0.40 0.40 0.39 0.39 0.38 0.36
1.06 1.09 1.14 1.14 1.12 1.09 1.10 1.15 1.19 1.17 1.15 1.12 1.10 1.12 1.16 1.19 1.23 1.21 1.24 1.23 1.24 1.28 1.27 1.22 1.21 1.16 1.09 1.08 1.08 1.02 0.98 0.99 1.06 1.06 0.99 0.94 0.91 0.91 0.91 0.91 0.90 0.88 0.87 0.85 0.84 0.82 0.83 0.81 0.79 0.75 0.69 0.65 0.62 0.60 0.59 0.59 0.58 0.55 0.53 0.53 0.53 0.52 0.51 0.51 0.51 0.49 0.48 0.44 0.40 0.35 0.32 0.29 0.24 0.23 0.23 0.26 0.31 0.36 0.40 0.39 0.39 0.40 0.38 0.36 0.36
1.08 1.10 1.13 1.14 1.12 1.10 1.13 1.17 1.21 1.17 1.13 1.14 1.17 1.14 1.16 1.18 1.18 1.20 1.24 1.24 1.25 1.25 1.24 1.21 1.18 1.14 1.09 1.04 1.05 1.05 1.03 1.01 1.01 1.00 0.96 0.95 0.94 0.94 0.93 0.92 0.91 0.88 0.87 0.85 0.84 0.83 0.82 0.80 0.77 0.74 0.70 0.67 0.62 0.60 0.61 0.60 0.59 0.56 0.53 0.51 0.51 0.50 0.50 0.51 0.52 0.51 0.49 0.44 0.39 0.36 0.34 0.30 0.25 0.23 0.23 0.26 0.30 0.35 0.38 0.39 0.40 0.40 0.38 0.38 0.36
1.07 1.10 1.13 1.15 1.11 1.11 1.15 1.19 1.18 1.17 1.15 1.16 1.17 1.16 1.15 1.12 1.13 1.20 1.23 1.24 1.23 1.21 1.19 1.15 1.13 1.10 1.07 1.04 1.01 0.99 0.99 0.99 0.99 0.99 0.98 0.96 0.96 0.95 0.94 0.94 0.92 0.90 0.89 0.90 0.86 0.86 0.84 0.81 0.77 0.74 0.71 0.66 0.62 0.60 0.59 0.58 0.56 0.54 0.52 0.49 0.48 0.49 0.49 0.49 0.51 0.51 0.49 0.45 0.40 0.37 0.35 0.32 0.28 0.24 0.24 0.28 0.32 0.34 0.36 0.36 0.37 0.37 0.38 0.39 0.38
1.07 1.09 1.12 1.14 1.15 1.15 1.17 1.16 1.15 1.15 1.13 1.13 1.14 1.17 1.14 1.11 1.08 1.11 1.18 1.21 1.19 1.15 1.13 1.11 1.11 1.10 1.07 1.05 1.03 1.01 0.98 0.98 0.97 0.97 0.97 0.97 0.98 0.98 0.96 0.95 0.93 0.91 0.90 0.88 0.86 0.85 0.84 0.81 0.78 0.76 0.70 0.64 0.60 0.58 0.57 0.55 0.53 0.52 0.51 0.49 0.47 0.47 0.48 0.49 0.52 0.51 0.49 0.45 0.41 0.38 0.37 0.35 0.31 0.26 0.24 0.28 0.31 0.32 0.34 0.35 0.35 0.36 0.37 0.37 0.38
1.13 1.15 1.15 1.18 1.18 1.19 1.18 1.17 1.16 1.20 1.22 1.17 1.15 1.15 1.15 1.15 1.14 1.13 1.09 1.07 1.06 1.07 1.09 1.09 1.07 1.05 1.05 1.05 1.05 1.02 1.00 0.98 0.98 1.00 1.02 1.03 1.01 0.99 0.98 0.99 0.99 0.96 0.91 0.88 0.88 0.85 0.84 0.81 0.77 0.73 0.69 0.65 0.61 0.57 0.54 0.52 0.51 0.51 0.51 0.51 0.50 0.49 0.49 0.50 0.49 0.47 0.46 0.44 0.41 0.40 0.40 0.37 0.32 0.26 0.24 0.27 0.31 0.33 0.33 0.33 0.34 0.35 0.36 0.37 0.38
1.21 1.24 1.24 1.23 1.19 1.16 1.14 1.17 1.17 1.20 1.22 1.22 1.18 1.16 1.15 1.16 1.16 1.11 1.05 1.02 0.99 0.97 0.97 0.99 1.00 1.01 1.01 1.02 1.03 1.02 1.02 1.01 1.01 1.02 1.04 1.04 1.03 0.99 0.98 0.96 0.92 0.90 0.90 0.90 0.88 0.86 0.83 0.80 0.77 0.73 0.68 0.62 0.58 0.55 0.53 0.52 0.52 0.52 0.51 0.51 0.50 0.49 0.47 0.46 0.45 0.45 0.44 0.43 0.42 0.42 0.41 0.39 0.34 0.28 0.25 0.26 0.29 0.31 0.31 0.31 0.32 0.34 0.35 0.37 0.39
1.22 1.21 1.23 1.25 1.23 1.23 1.20 1.20 1.23 1.23 1.24 1.23 1.21 1.19 1.18 1.15 1.09 1.04 1.01 0.99 0.97 0.94 0.94 0.96 0.98 1.00 1.01 1.00 1.01 1.03 1.03 1.02 1.02 1.01 1.01 0.99 0.97 0.94 0.88 0.87 0.87 0.88 0.89 0.88 0.85 0.83 0.79 0.75 0.71 0.67 0.63 0.59 0.57 0.55 0.54 0.54 0.55 0.54 0.53 0.52 0.49 0.47 0.45 0.44 0.43 0.43 0.42 0.42 0.42 0.43 0.42 0.39 0.32 0.27 0.27 0.29 0.30 0.30 0.30 0.31 0.32 0.34 0.36 0.38 0.39
1.19 1.20 1.21 1.23 1.23 1.23 1.24 1.24 1.23 1.24 1.23 1.22 1.20 1.17 1.15 1.11 1.06 1.02 0.99 0.97 0.96 0.99 1.01 1.03 1.03 1.02 1.01 1.02 1.04 1.04 1.03 1.01 1.00 0.99 0.97 0.96 0.95 0.93 0.89 0.86 0.85 0.86 0.84 0.83 0.81 0.78 0.74 0.71 0.66 0.61 0.58 0.56 0.55 0.56 0.56 0.55 0.55 0.54 0.54 0.53 0.51 0.48 0.46 0.44 0.42 0.41 0.40 0.40 0.41 0.43 0.42 0.37 0.30 0.28 0.29 0.28 0.29 0.30 0.30 0.30 0.32 0.34 0.36 0.39 0.39
1.23 1.20 1.19 1.20 1.23 1.26 1.25 1.25 1.24 1.25 1.23 1.22 1.20 1.16 1.10 1.07 1.04 1.03 1.02 1.03 1.04 1.03 1.01 1.01 1.02 1.01 0.99 1.01 1.04 1.03 1.01 0.99 0.98 0.96 0.95 0.94 0.92 0.89 0.87 0.86 0.86 0.84 0.83 0.82 0.79 0.75 0.70 0.66 0.62 0.59 0.57 0.56 0.55 0.55 0.55 0.54 0.54 0.53 0.53 0.52 0.51 0.50 0.49 0.46 0.43 0.42 0.41 0.41 0.41 0.41 0.39 0.34 0.30 0.30 0.30 0.29 0.29 0.29 0.30 0.30 0.31 0.33 0.37 0.39 0.39
1.20 1.23 1.24 1.24 1.24 1.23 1.23 1.23 1.21 1.20 1.21 1.19 1.15 1.10 1.07 1.05 1.03 1.04 1.04 1.04 1.03 1.01 1.00 0.99 0.98 0.98 0.99 1.01 1.00 1.00 0.96 0.91 0.89 0.89 0.91 0.91 0.90 0.88 0.86 0.86 0.85 0.85 0.85 0.83 0.78 0.72 0.66 0.62 0.60 0.58 0.57 0.57 0.57 0.57 0.56 0.55 0.55 0.54 0.53 0.51 0.49 0.49 0.48 0.47 0.45 0.43 0.41 0.40 0.40 0.40 0.37 0.31 0.30 0.31 0.31 0.30 0.30 0.30 0.30 0.30 0.31 0.35 0.37 0.38 0.39
1.13 1.16 1.19 1.22 1.23 1.22 1.21 1.20 1.21 1.19 1.17 1.14 1.09 1.09 1.07 1.05 1.04 1.02 1.01 1.00 0.99 0.97 0.96 0.94 0.94 0.95 0.97 0.97 0.94 0.93 0.91 0.90 0.90 0.90 0.88 0.87 0.85 0.86 0.87 0.87 0.87 0.86 0.83 0.79 0.73 0.67 0.63 0.61 0.59 0.58 0.59 0.60 0.60 0.59 0.59 0.58 0.58 0.56 0.53 0.50 0.48 0.47 0.48 0.47 0.45 0.42 0.40 0.40 0.39 0.37 0.33 0.30 0.30 0.30 0.30 0.30 0.30 0.30 0.29 0.29 0.32 0.36 0.38 0.38 0.39
1.11 1.15 1.15 1.15 1.16 1.17 1.16 1.14 1.11 1.10 1.11 1.10 1.10 1.09 1.08 1.06 1.05 1.03 1.00 0.97 0.95 0.93 0.93 0.94 0.95 0.98 0.99 0.97 0.96 0.95 0.93 0.91 0.91 0.89 0.87 0.86 0.86 0.86 0.86 0.85 0.84 0.81 0.78 0.73 0.69 0.65 0.63 0.62 0.63 0.65 0.65 0.65 0.64 0.63 0.62 0.62 0.60 0.56 0.52 0.50 0.49 0.48 0.47 0.46 0.45 0.42 0.41 0.39 0.37 0.33 0.30 0.29 0.29 0.29 0.28 0.29 0.30 0.30 0.30 0.31 0.34 0.36 0.38 0.38 0.39
1.08 1.09 1.09 1.10 1.11 1.11 1.10 1.10 1.09 1.11 1.10 1.10 1.09 1.07 1.05 1.03 1.02 1.00 0.98 0.95 0.94 0.93 0.92 0.92 0.93 0.95 0.96 0.95 0.93 0.92 0.90 0.89 0.88 0.87 0.86 0.87 0.88 0.89 0.88 0.86 0.84 0.81 0.77 0.73 0.69 0.67 0.66 0.65 0.67 0.67 0.68 0.67 0.67 0.66 0.65 0.63 0.60 0.56 0.52 0.49 0.48 0.48 0.47 0.45 0.44 0.41 0.39 0.35 0.31 0.29 0.28 0.28 0.29 0.29 0.29 0.30 0.31 0.32 0.31 0.32 0.34 0.35 0.37 0.37 0.38
1.06 1.07 1.09 1.10 1.10 1.10 1.08 1.09 1.08 1.07 1.07 1.05 1.04 1.03 1.01 1.00 0.98 0.96 0.95 0.93 0.92 0.92 0.92 0.91 0.91 0.91 0.91 0.91 0.91 0.90 0.88 0.88 0.87 0.88 0.88 0.89 0.90 0.89 0.88 0.86 0.84 0.82 0.79 0.76 0.74 0.71 0.69 0.68 0.69 0.71 0.71 0.70 0.69 0.67 0.65 0.63 0.61 0.58 0.55 0.51 0.49 0.48 0.47 0.45 0.43 0.40 0.37 0.32 0.28 0.25 0.24 0.25 0.27 0.28 0.29 0.30 0.31 0.32 0.33 0.33 0.34 0.35 0.36 0.37 0.38
1.07 1.06 1.05 1.05 1.06 1.06 1.07 1.07 1.06 1.06 1.06 1.04 1.03 1.02 1.01 1.01 1.00 0.99 0.97 0.95 0.94 0.93 0.93 0.92 0.91 0.90 0.89 0.89 0.89 0.88 0.88 0.88 0.88 0.88 0.88 0.87 0.87 0.87 0.87 0.86 0.84 0.81 0.79 0.77 0.75 0.74 0.73 0.73 0.73 0.73 0.71 0.69 0.69 0.68 0.67 0.67 0.65 0.62 0.59 0.54 0.51 0.49 0.47 0.44 0.41 0.36 0.32 0.28 0.25 0.23 0.23 0.23 0.25 0.26 0.28 0.29 0.31 0.32 0.33 0.34 0.34 0.35 0.37 0.38 0.39
1.09 1.07 1.04 1.03 1.03 1.03 1.03 1.05 1.04 1.05 1.05 1.04 1.03 1.03 1.04 1.03 1.00 0.98 0.97 0.96 0.96 0.95 0.94 0.93 0.91 0.89 0.88 0.88 0.88 0.87 0.87 0.86 0.86 0.85 0.85 0.85 0.85 0.86 0.86 0.85 0.84 0.82 0.79 0.77 0.77 0.76 0.76 0.75 0.73 0.71 0.69 0.68 0.68 0.67 0.67 0.67 0.67 0.66 0.63 0.59 0.55 0.50 0.46 0.41 0.36 0.32 0.29 0.26 0.25 0.25 0.24 0.25 0.25 0.26 0.26 0.28 0.30 0.32 0.33 0.34 0.35 0.36 0.37 0.38 0.39
0.98 1.00 1.02 1.03 1.03 1.03 1.03 1.03 1.04 1.03 1.02 1.01 1.00 1.00 1.00 1.00 0.99 0.98 0.98 0.98 0.98 0.95 0.92 0.90 0.90 0.90 0.89 0.88 0.87 0.85 0.84 0.84 0.84 0.84 0.83 0.83 0.83 0.85 0.85 0.85 0.85 0.84 0.82 0.80 0.79 0.79 0.79 0.77 0.76 0.73 0.70 0.68 0.68 0.67 0.67 0.68 0.68 0.68 0.66 0.63 0.59 0.53 0.46 0.40 0.35 0.31 0.28 0.27 0.26 0.25 0.24 0.25 0.26 0.28 0.29 0.31 0.32 0.34 0.34 0.35 0.37 0.38 0.38 0.38 0.39
0.93 0.95 0.96 0.96 0.97 0.99 1.00 1.01 1.01 0.98 1.01 1.00 0.99 0.99 0.98 0.97 0.96 0.94 0.93 0.91 0.91 0.91 0.91 0.91 0.91 0.89 0.87 0.87 0.87 0.87 0.87 0.86 0.86 0.84 0.83 0.83 0.83 0.84 0.85 0.86 0.86 0.85 0.83 0.82 0.81 0.81 0.81 0.80 0.78 0.76 0.73 0.72 0.71 0.70 0.69 0.68 0.67 0.66 0.63 0.61 0.58 0.54 0.47 0.40 0.33 0.30 0.28 0.28 0.28 0.30 0.33 0.35 0.35 0.35 0.35 0.35 0.35 0.36 0.36 0.36 0.37 0.37 0.38 0.38 0.39
0.84 0.86 0.89 0.91 0.93 0.93 0.93 0.94 0.93 0.94 0.94 0.94 0.93 0.93 0.94 0.93 0.90 0.89 0.88 0.89 0.89 0.89 0.88 0.88 0.88 0.88 0.88 0.88 0.88 0.88 0.88 0.90 0.90 0.90 0.88 0.86 0.84 0.83 0.83 0.84 0.84 0.84 0.84 0.84 0.84 0.83 0.82 0.80 0.78 0.77 0.76 0.74 0.73 0.72 0.71 0.70 0.68 0.65 0.62 0.60 0.57 0.52 0.47 0.40 0.34 0.31 0.30 0.32 0.36 0.39 0.40 0.39 0.39 0.38 0.38 0.37 0.36 0.36 0.35 0.35 0.36 0.37 0.38 0.39 0.40
0.75 0.78 0.81 0.83 0.86 0.89 0.90 0.90 0.89 0.88 0.88 0.88 0.89 0.89 0.89 0.88 0.87 0.86 0.86 0.85 0.85 0.84 0.84 0.83 0.84 0.85 0.86 0.89 0.91 0.92 0.91 0.90 0.89 0.89 0.90 0.90 0.88 0.87 0.86 0.86 0.87 0.87 0.86 0.85 0.83 0.80 0.79 0.78 0.77 0.77 0.77 0.76 0.75 0.74 0.71 0.68 0.64 0.62 0.59 0.56 0.52 0.48 0.44 0.40 0.36 0.33 0.33 0.37 0.41 0.43 0.43 0.42 0.41 0.39 0.38 0.37 0.36 0.36 0.36 0.37 0.37 0.37 0.38 0.39 0.40
0.64 0.68 0.73 0.78 0.80 0.82 0.84 0.86 0.86 0.86 0.87 0.88 0.87 0.87 0.88 0.87 0.86 0.85 0.84 0.83 0.82 0.82 0.83 0.83 0.82 0.83 0.83 0.84 0.85 0.86 0.88 0.88 0.87 0.87 0.88 0.89 0.90 0.90 0.90 0.90 0.89 0.87 0.84 0.81 0.79 0.77 0.77 0.78 0.78 0.78 0.78 0.77 0.76 0.74 0.70 0.65 0.61 0.60 0.58 0.55 0.51 0.47 0.44 0.42 0.38 0.36 0.37 0.41 0.43 0.44 0.44 0.43 0.41 0.40 0.39 0.39 0.39 0.39 0.38 0.37 0.38 0.38 0.38 0.39 0.39
0.62 0.62 0.64 0.67 0.71 0.75 0.77 0.78 0.78 0.79 0.81 0.82 0.83 0.84 0.84 0.83 0.83 0.84 0.83 0.81 0.79 0.79 0.80 0.81 0.81 0.81 0.81 0.81 0.81 0.81 0.81 0.82 0.84 0.85 0.86 0.86 0.86 0.85 0.85 0.85 0.84 0.83 0.80 0.78 0.77 0.79 0.80 0.80 0.80 0.79 0.78 0.75 0.72 0.68 0.64 0.62 0.61 0.59 0.55 0.52 0.49 0.48 0.46 0.44 0.42 0.39 0.39 0.42 0.44 0.44 0.43 0.42 0.41 0.40 0.40 0.41 0.42 0.41 0.39 0.38 0.38 0.38 0.38 0.39 0.39
Wind_Speed
30 30 30 30 29 29 28 27 26 26 26 25 25 24 23 22 21 20 20 20 20 19 19 18 18 18 17 17 16 16 15 15 15 16 16 16 16 17 17 17 17 17 17 17 16 16 16 16 16 16 16 16 17 17 18 18 18 19 19 19 19 20 20 20 21 21 21 21 21 22 23 23 24 24 25 25 25 25 24 23 23 24 24 25 25
30 30 30 29 29 29 28 27 26 27 27 26 25 24 23 22 21 21 20 20 20 20 19 19 18 18 17 17 17 16 16 15 16 16 16 17 17 17 17 17 17 17 17 17 17 16 16 16 16 17 17 17 17 17 18 18 18 19 19 19 19 19 20 20 20 20 21 21 21 22 22 23 23 24 24 25 24 24 23 23 23 23 24 24 25
31 30 30 29 29 28 28 27 27 27 27 26 25 24 23 22 22 21 21 20 20 20 19 19 19 18 18 17 17 17 16 16 16 16 17 17 17 18 18 18 18 17 17 17 17 17 17 17 17 17 17 17 17 18 18 18 18 19 19 19 19 18 19 20 20 20 20 20 21 21 22 22 23 24 24 24 23 23 22 22 23 23 23 24 25
31 30 30 30 29 28 28 27 27 28 27 26 26 25 23 22 22 21 21 20 20 20 20 19 19 18 18 18 17 17 17 16 16 17 17 17 17 18 18 18 18 18 17 17 17 17 17 17 17 17 17 17 17 18 18 18 19 19 19 19 18 18 19 20 20 20 20 20 21 21 21 22 23 23 24 23 22 21 21 22 22 23 23 24 25
31 31 30 30 29 29 28 28 28 28 27 26 26 25 23 22 22 22 21 21 20 20 20 20 19 19 18 18 18 17 17 17 17 17 17 17 17 18 18 18 18 18 17 17 17 17 17 17 17 17 17 17 17 18 18 18 19 19 19 18 18 17 18 19 20 20 20 19 20 21 21 22 23 23 23 23 22 21 21 21 21 22 23 24 25
31 31 30 30 30 29 29 28 29 29 27 27 26 25 23 23 22 22 22 21 21 21 21 20 20 19 19 18 18 18 17 17 17 16 17 17 17 17 18 18 18 17 17 17 17 17 17 17 17 17 17 17 18 18 18 18 19 19 19 18 17 17 18 19 19 20 19 19 20 20 21 22 23 23 22 22 21 21 20 21 21 21 22 24 25
31 31 30 31 31 30 29 29 29 28 27 27 27 25 24 23 22 22 22 21 21 21 21 21 20 20 19 19 18 18 17 17 17 16 17 17 17 17 17 17 17 17 17 17 17 17 17 17 17 17 17 18 18 18 18 19 19 20 20 18 17 17 18 19 19 19 19 19 20 20 21 22 22 22 22 21 21 20 21 21 21 21 22 23 24
31 31 31 31 31 30 29 29 29 28 27 27 27 26 24 23 22 22 22 22 22 22 21 21 21 20 20 19 19 18 18 17 17 17 17 16 16 16 16 17 17 16 16 17 17 17 17 17 17 18 18 18 19 19 19 19 19 20 19 17 17 18 18 18 19 19 19 19 20 20 21 21 22 22 22 21 20 20 20 21 21 22 23 23 23
31 31 31 31 30 29 29 29 28 28 27 28 27 26 25 24 23 23 23 23 22 22 22 21 21 20 20 19 19 19 18 18 17 17 17 16 16 16 16 16 16 16 16 16 17 17 17 17 18 18 18 19 19 19 19 19 19 19 18 17 17 18 18 18 18 19 19 19 20 20 21 21 22 21 21 21 20 20 20 21 21 22 23 23 23
31 31 31 31 30 29 29 29 28 27 28 28 28 26 25 24 23 23 23 23 23 22 22 22 21 21 20 20 19 19 19 18 18 17 17 17 17 17 17 17 16 16 16 16 17 17 17 18 18 18 19 19 19 19 19 20 20 19 18 18 18 18 18 18 18 18 19 19 20 20 21 21 21 21 21 21 20 20 20 21 22 22 23 23 23
30 30 31 30 30 29 29 29 28 28 28 28 28 27 26 25 24 24 24 24 23 23 23 22 22 21 21 20 20 20 19 18 18 18 18 17 17 17 17 17 17 17 17 17 17 18 18 18 19 19 19 19 19 20 20 20 19 19 18 18 18 18 18 18 18 18 19 19 20 20 21 21 21 21 21 20 20 20 21 21 22 22 22 23 24
30 30 30 30 30 29 29 29 28 28 28 29 28 27 26 26 25 24 24 24 24 23 23 23 22 22 21 21 21 20 20 19 19 18 18 18 18 18 17 17 17 17 18 18 18 18 19 19 19 20 20 20 20 20 20 19 19 19 18 18 18 18 18 18 18 18 19 19 20 20 21 21 21 21 21 21 20 21 21 21 22 22 22 22 23
30 30 30 30 30 29 29 29 28 28 29 29 28 28 27 26 26 25 25 25 25 24 23 23 23 22 22 22 21 21 20 20 19 19 19 19 19 18 18 18 18 18 19 19 19 19 19 19 20 20 20 20 20 20 19 19 19 19 18 18 18 18 18 18 18 19 19 20 20 20 21 21 21 21 21 21 21 21 22 22 22 23 23 23 23
30 30 30 30 30 30 30 30 29 28 29 29 29 28 27 27 27 26 25 25 25 25 24 24 23 23 23 22 22 22 21 20 20 20 20 20 19 19 19 19 19 19 19 19 19 19 20 20 20 20 20 20 20 19 19 20 20 19 18 18 18 18 18 18 18 19 19 20 20 21 21 21 21 21 21 21 21 22 22 22 23 23 23 23 24
30 30 30 30 30 30 30 30 29 29 29 29 29 29 28 27 27 27 26 25 26 26 25 25 24 23 23 23 22 22 22 21 20 20 20 20 20 19 19 19 19 19 19 19 20 20 20 20 20 20 20 20 20 20 20 20 20 19 19 19 18 18 18 18 18 19 19 20 20 21 21 21 21 21 21 21 22 22 23 23 23 23 24 24 24
30 30 30 30 30 30 30 30 30 30 30 30 29 29 29 28 28 27 27 26 26 26 26 25 24 23 23 23 23 23 22 21 21 21 21 21 21 20 20 19 19 19 19 19 20 20 20 20 20 20 20 20 20 20 19 20 20 20 19 18 18 18 18 19 19 20 20 21 21 21 22 22 22 22 22 22 22 23 23 23 23 23 24 24 24
29 30 30 30 31 31 31 31 31 30 30 30 30 30 30 29 28 28 28 27 27 27 27 26 24 24 24 24 23 23 23 22 22 22 22 22 21 20 20 19 19 19 19 20 20 20 20 20 20 20 20 20 20 20 20 20 20 20 19 18 18 18 18 19 20 20 21 21 22 22 22 22 22 22 22 23 23 23 23 23 23 23 23 24 24
30 30 30 31 31 31 31 31 31 31 31 31 31 31 31 30 29 28 28 28 27 28 27 26 24 24 24 24 24 24 23 23 23 22 22 22 21 21 20 20 19 19 20 20 20 21 21 21 21 20 21 21 20 20 21 21 20 20 19 18 18 19 19 19 20 20 21 22 22 22 23 23 23 23 23 23 23 23 23 23 23 23 24 24 24
31 30 30 30 31 31 31 31 31 31 31 31 32 31 30 31 31 29 28 28 28 27 27 26 25 25 25 25 24 24 23 23 23 23 23 22 22 21 20 20 19 20 20 20 21 21 21 21 21 21 21 21 21 21 21 21 20 20 19 19 19 19 19 20 20 21 21 22 22 23 23 23 23 23 23 24 23 23 23 23 24 24 24 24 24
31 31 31 30 30 31 31 31 32 32 32 32 32 31 30 31 31 29 28 28 27 27 27 26 26 26 26 26 25 24 23 23 23 23 23 23 22 21 20 20 20 20 20 21 21 21 21 22 22 22 22 21 21 21 21 21 20 20 19 19 19 20 20 20 21 21 22 22 22 23 23 23 23 23 23 24 24 23 24 24 24 24 24 24 24
30 31 31 31 31 31 31 31 31 31 32 32 32 31 31 31 31 29 28 28 28 27 27 26 26 26 26 26 26 25 24 23 23 23 24 24 23 22 21 20 20 20 21 21 21 21 21 21 22 22 22 21 22 21 21 21 20 20 20 20 20 20 20 21 22 22 22 23 23 23 23 23 23 23 23 23 23 23 24 24 24 24 23 23 23
29 31 31 31 32 31 31 31 31 31 31 32 31 31 30 30 30 30 29 29 28 28 27 26 25 25 25 26 26 26 25 24 23 23 23 22 22 21 21 21 21 21 21 21 21 21 21 21 22 22 22 22 22 21 21 20 20 20 20 20 20 20 21 22 22 22 23 23 23 23 23 23 23 23 23 23 23 23 23 24 24 24 23 23 23
27 28 29 29 30 31 31 31 31 31 31 31 31 31 30 30 31 31 30 29 28 28 27 26 25 25 25 25 25 26 25 24 23 22 21 21 21 21 21 21 21 21 21 21 21 21 21 21 22 22 22 21 21 20 20 20 20 20 21 21 20 20 21 22 22 23 23 23 23 23 24 24 23 23 22 22 23 23 23 24 24 24 23 23 24
27 27 26 26 27 28 29 29 30 31 30 30 31 31 31 30 31 31 30 29 28 27 26 25 25 25 25 24 25 25 25 25 24 22 21 21 21 21 21 21 21 21 21 21 21 22 22 22 22 21 21 21 20 20 20 20 20 21 21 21 21 21 22 22 23 23 23 23 23 24 24 23 23 22 22 22 23 23 24 24 24 24 23 24 24
28 27 27 27 26 26 27 28 29 30 31 31 31 32 31 31 31 31 31 30 28 27 26 25 25 25 25 24 24 24 24 24 24 22 22 22 22 22 22 22 22 22 21 21 21 22 22 22 21 21 21 21 20 20 20 21 21 21 21 21 21 22 23 23 23 23 23 23 23 24 23 23 22 22 22 22 23 23 23 24 24 24 23 24 24
27 28 28 28 27 27 27 27 29 30 31 32 32 32 32 32 31 30 30 29 27 26 25 25 25 25 24 24 24 24 24 23 23 22 22 22 22 22 22 22 22 22 22 22 22 22 22 22 21 21 21 21 21 20 21 21 21 21 21 21 22 23 23 23 23 24 24 24 24 24 23 22 22 22 22 22 22 23 23 23 24 23 23 23 23
27 28 28 28 28 27 27 27 28 29 30 31 32 32 32 32 31 29 29 28 26 25 25 25 24 24 24 23 23 23 23 23 22 22 22 22 22 22 22 23 23 23 22 22 22 22 22 21 21 21 20 21 21 21 22 22 22 21 22 22 23 23 23 23 24 24 24 23 23 23 23 22 22 21 21 21 22 22 23 23 24 24 23 23 23
28 28 29 28 28 28 28 28 28 28 29 30 32 32 32 31 31 30 30 29 27 26 25 24 24 24 23 23 22 22 22 23 23 23 23 22 22 22 23 23 23 23 23 23 23 22 22 22 21 21 21 21 22 22 22 23 22 22 23 23 23 23 23 23 23 23 23 23 23 23 22 22 21 21 21 21 22 22 23 23 24 23 23 22 22
28 29 29 28 27 28 28 28 28 28 28 30 31 32 32 31 31 30 29 28 27 25 23 23 23 23 23 22 22 22 23 23 23 22 22 22 22 23 23 23 23 24 24 24 23 23 23 22 22 22 22 22 23 23 23 24 24 24 24 25 24 24 24 24 24 24 23 23 23 23 22 22 22 22 21 22 22 22 22 23 23 23 22 21 21
27 28 27 27 27 28 28 29 29 29 29 29 30 30 30 29 29 29 28 27 26 24 23 23 23 23 22 22 23 23 23 23 22 22 22 23 23 23 23 23 23 23 23 23 23 23 23 23 22 22 23 23 23 24 24 25 25 25 26 26 25 25 25 24 24 24 23 23 23 22 22 22 22 22 22 22 22 22 22 22 22 22 21 21 21
25 26 26 27 27 27 28 28 28 28 28 29 30 29 28 28 27 27 27 26 26 25 24 23 22 22 22 22 23 23 22 22 23 23 23 23 23 23 23 23 24 24 23 22 23 23 23 23 23 23 23 24 24 24 24 25 26 26 26 26 25 25 25 25 25 24 23 23 23 22 22 22 22 22 22 22 22 22 22 21 21 21 21 22 22
25 25 25 26 27 26 26 27 27 27 27 28 29 29 29 27 26 26 26 26 26 25 24 23 23 22 22 22 22 23 23 23 23 23 22 22 23 23 23 23 24 24 24 24 24 24 23 23 23 23 23 24 24 24 24 25 26 26 26 25 25 25 25 25 25 24 24 23 23 23 23 23 23 23 22 22 22 22 21 21 21 21 22 22 23
24 24 25 26 26 26 26 26 25 25 26 27 28 28 28 27 26 25 25 25 24 24 24 24 23 23 23 23 22 22 23 23 22 22 22 22 22 23 23 23 24 24 24 25 25 24 24 24 24 24 24 24 24 25 25 25 25 26 25 25 25 25 25 25 24 24 24 24 23 23 23 23 23 23 22 22 22 22 21 21 21 21 22 22 23
24 25 26 26 26 26 25 25 25 24 25 26 27 27 26 26 25 24 23 23 22 22 23 23 23 23 22 22 22 22 22 22 22 22 22 22 22 23 23 23 23 23 24 24 25 25 25 25 25 25 24 24 25 25 25 25 25 25 26 26 26 25 25 24 24 24 24 24 24 24 24 24 24 23 22 22 22 22 21 21 21 21 22 22 23
22 22 23 25 25 25 24 24 24 24 25 25 26 25 24 24 23 23 23 22 22 21 21 21 21 21 21 21 22 22 23 23 23 23 23 23 23 23 23 23 23 23 24 24 25 25 25 25 25 25 25 25 25 25 25 25 25 26 26 26 26 25 25 24 24 25 25 25 25 25 25 24 24 23 22 22 22 22 22 21 21 22 22 22 22
18 19 19 21 23 23 23 24 24 24 24 24 24 24 23 23 23 23 22 21 21 20 20 20 20 21 21 21 22 22 23 23 24 24 24 24 24 24 24 25 24 24 25 25 25 25 26 26 25 25 25 25 25 25 25 26 26 26 26 26 25 25 24 25 25 25 25 26 26 26 25 25 25 23 23 22 23 22 22 22 22 22 22 22 21
16 17 18 19 20 21 21 22 23 24 23 23 23 23 23 22 22 22 21 20 20 20 20 21 21 21 21 22 22 23 23 23 24 24 24 24 24 24 25 25 25 25 25 25 25 25 25 25 25 25 25 25 25 25 26 26 26 26 25 25 25 24 24 24 25 25 26 26 26 26 26 26 25 23 23 23 23 23 22 22 21 21 21 21 20
15 16 17 18 18 19 19 21 22 23 23 23 23 22 22 21 21 20 20 21 21 21 22 22 22 22 22 22 22 23 24 24 24 24 24 24 24 25 25 25 25 25 25 25 25 25 25 25 25 25 25 25 25 25 25 25 25 24 24 24 24 24 24 25 25 26 26 27 27 27 26 26 25 23 23 23 23 23 22 21 21 21 21 21 20
13 14 15 16 17 18 19 20 21 21 22 22 22 21 20 20 20 20 21 21 22 22 22 23 23 23 23 24 24 24 24 24 24 25 25 24 24 24 24 24 24 24 24 25 25 25 26 26 25 25 25 25 24 24 24 24 24 24 23 23 23 23 24 25 26 26 27 27 27 27 26 25 24 24 23 23 23 23 22 21 21 21 21 21 20
12 13 14 15 16 17 18 19 20 21 21 21 21 20 20 20 20 21 21 21 21 22 22 22 23 23 23 23 23 24 24 24 25 25 25 25 24 24 24 24 24 25 25 25 25 26 26 26 25 25 24 24 24 24 24 24 23 23 23 23 23 24 24 25 26 26 27 27 27 26 26 25 24 24 23 23 23 23 22 22 21 21 21 21 21
12 12 13 14 15 16 17 18 19 20 20 20 20 19 19 19 19 20 20 20 20 21 21 22 22 22 23 23 23 24 24 24 25 25 25 25 25 24 24 25 25 26 26 26 26 26 26 25 25 24 24 23 24 24 24 24 24 24 23 23 24 24 25 25 26 26 26 26 26 26 25 24 24 24 23 23 23 23 23 22 22 21 21 21 21
11 12 13 14 15 16 17 18 19 19 19 19 19 19 19 19 19 20 20 20 20 21 21 22 22 22 22 23 23 23 24 24 24 24 25 25 25 25 25 25 26 26 26 26 26 26 25 25 24 24 24 24 25 25 24 24 24 24 24 24 24 25 25 26 27 27 26 26 26 25 25 24 24 24 24 23 23 23 23 23 22 22 21 22 22
10 11 12 13 15 15 16 17 17 18 19 19 19 19 20 20 21 21 22 22 22 22 22 22 22 22 23 23 23 24 24 24 24 24 25 25 26 26 26 26 26 26 26 26 25 25 25 25 24 24 25 25 25 25 26 25 25 25 25 25 25 25 26 27 27 27 26 26 25 25 25 24 24 24 24 24 24 23 23 23 22 22 22 21 21
8 10 11 12 13 15 16 16 17 18 19 20 20 20 21 22 22 23 23 23 23 22 22 22 22 23 23 23 24 24 24 24 25 25 25 26 26 27 27 27 27 26 26 26 26 26 25 25 25 25 25 26 26 26 26 26 26 26 25 25 26 26 27 28 27 27 26 26 25 25 24 24 24 24 24 24 24 24 23 23 22 22 21 21 21
10 11 11 12 13 15 16 17 17 18 19 20 20 21 22 22 23 23 24 23 23 22 22 23 23 23 24 24 24 24 25 25 25 25 26 26 26 26 26 26 27 27 26 26 26 26 26 26 26 26 26 26 26 26 26 26 26 26 26 26 26 27 28 28 28 27 26 25 25 24 24 23 23 24 24 24 24 24 23 23 22 22 21 21 21
12 13 13 13 14 15 16 17 17 18 19 19 20 21 22 23 23 23 23 23 22 22 23 23 24 24 24 24 25 25 25 25 26 26 26 26 26 26 26 26 27 27 27 27 27 27 27 27 27 27 27 26 26 26 26 26 26 26 27 27 27 28 28 28 28 27 25 24 24 23 23 23 23 23 23 23 23 23 23 22 22 21 21 21 20
13 14 14 15 15 16 16 17 18 18 19 20 20 21 22 23 23 23 23 22 22 23 23 23 24 24 24 25 25 26 26 26 26 26 26 26 25 25 26 27 28 28 28 28 27 27 27 27 27 27 27 27 26 26 26 26 27 27 28 28 29 29 29 28 27 26 25 24 23 23 23 23 22 22 22 22 22 22 22 21 21 21 21 20 20
14 14 15 15 16 16 17 18 18 19 19 20 20 21 21 22 22 22 22 22 22 22 23 23 24 24 25 25 26 26 26 26 26 26 26 26 26 26 27 27 28 28 28 28 28 27 27 28 28 28 28 28 27 27 26 27 27 28 29 29 29 29 29 28 27 26 25 24 23 23 22 22 22 22 22 22 22 22 22 21 21 21 21 20 20
15 16 16 16 17 17 18 18 18 19 19 20 20 21 21 21 22 22 22 22 22 22 23 23 23 24 24 25 25 26 26 26 27 27 27 28 28 27 27 27 28 28 28 28 28 28 28 28 28 28 28 28 28 28 27 27 28 28 29 29 29 28 28 27 27 26 25 24 23 23 22 22 22 22 22 22 22 22 21 21 21 21 20 20 20
16 16 17 17 18 18 19 19 19 19 20 20 20 21 21 21 22 22 22 22 23 23 23 23 24 24 24 24 24 25 26 26 26 27 27 28 28 28 28 28 28 28 28 28 28 28 28 28 28 28 28 29 28 28 28 28 28 28 28 28 28 27 27 27 26 26 25 24 24 23 23 22 22 22 21 21 21 21 21 21 21 21 21 21 21
16 16 17 18 18 19 19 19 20 20 20 20 21 21 21 22 22 22 23 23 24 24 24 24 25 25 25 25 25 25 25 26 26 26 27 27 27 27 28 28 28 28 28 28 28 28 28 28 28 28 28 28 28 28 28 28 28 28 29 28 27 26 26 26 26 26 26 26 25 24 23 23 22 22 22 21 21 21 22 22 21 21 21 22 21
Wind_Direction
233 234 237 239 240 242 243 243 242 238 235 237 238 236 237 239 240 242 244 246 247 248 249 250 251 251 252 253 254 256 257 257 257 257 257 256 255 254 254 254 255 257 258 259 261 263 266 269 270 272 274 277 280 283 285 287 289 292 294 294 293 295 299 304 308 309 310 310 310 312 314 316 318 320 322 324 326 327 328 329 330 331 331 331 332
233 234 236 238 239 241 242 242 240 236 234 236 236 235 235 238 239 241 243 245 247 247 248 249 250 251 251 252 253 255 256 257 257 257 257 257 256 254 254 254 255 256 258 259 260 262 265 267 269 271 274 277 280 283 285 288 291 293 295 296 295 295 298 303 306 308 308 309 310 312 314 316 318 320 321 323 324 325 326 327 329 330 330 330 332
234 234 236 237 238 240 241 241 238 234 232 234 234 233 234 236 238 240 242 245 247 247 248 248 249 250 251 252 253 255 256 257 257 258 258 257 256 254 253 253 255 256 257 258 259 261 264 266 268 271 274 277 280 283 286 288 291 294 295 297 297 296 299 303 305 307 307 308 310 312 314 316 317 319 321 322 323 324 324 326 327 328 329 330 331
233 234 234 236 237 238 240 239 236 232 231 233 232 231 233 235 237 239 242 244 246 247 247 248 248 249 251 252 253 254 255 257 258 259 259 258 256 254 253 253 255 256 256 257 259 261 263 266 268 271 274 277 280 283 286 288 292 294 295 297 296 297 301 304 305 306 307 309 311 312 314 315 317 319 321 322 322 322 323 325 327 328 329 331 332
232 233 233 234 235 237 238 237 233 230 230 232 230 229 231 234 236 239 241 244 246 246 247 247 247 248 250 252 252 253 255 257 258 259 259 258 256 255 254 254 255 255 256 257 259 261 264 266 269 271 274 277 280 283 286 289 292 294 295 296 295 297 303 305 305 307 308 309 311 312 313 315 317 320 322 322 321 321 322 324 326 328 329 331 332
231 232 232 232 234 236 237 235 231 229 230 230 228 228 231 233 236 238 240 243 245 246 247 247 247 248 250 252 251 252 254 257 259 259 259 258 257 256 255 254 254 255 256 257 259 262 265 267 269 272 274 277 280 283 287 290 293 295 294 293 293 298 302 305 306 307 308 309 311 312 313 316 318 319 321 321 320 320 322 324 326 328 330 331 332
230 231 231 232 234 235 235 233 229 227 229 228 227 228 230 233 235 237 240 242 244 246 247 246 246 247 249 251 251 252 254 257 259 260 259 258 256 255 255 255 255 255 256 258 261 263 266 268 270 272 275 278 280 284 288 292 295 297 293 288 290 298 302 304 306 307 308 310 311 312 313 316 317 318 320 320 319 319 322 324 326 328 331 332 332
229 230 230 231 233 234 234 231 227 227 228 226 225 227 230 233 235 237 240 241 243 246 248 247 246 247 249 250 251 252 254 256 259 259 258 257 255 255 256 256 256 256 257 260 262 264 266 268 270 273 276 279 281 284 288 291 295 299 294 286 289 298 301 303 305 307 308 309 310 312 314 315 317 318 319 319 319 319 321 324 325 327 329 331 331
228 228 228 230 231 232 232 229 226 226 226 224 225 228 230 232 235 237 239 241 243 246 248 247 247 247 247 249 251 252 254 256 258 258 257 255 254 255 256 256 257 257 259 262 263 265 266 269 272 274 276 278 280 283 286 289 293 298 294 289 293 298 300 302 305 306 307 308 310 312 313 315 316 317 318 319 318 318 320 322 323 324 327 329 329
226 226 227 229 230 230 229 227 226 226 225 224 226 229 231 233 235 237 239 240 243 246 246 247 247 246 246 248 250 252 254 257 257 256 254 253 254 255 255 256 258 259 260 262 264 265 267 270 273 274 276 278 279 282 285 288 292 294 292 290 294 297 299 301 304 305 307 308 309 311 313 314 315 316 317 319 319 318 319 321 322 324 326 327 329
224 225 227 227 228 228 227 225 225 226 224 224 227 230 232 233 235 237 239 240 243 245 245 247 247 246 246 247 249 252 255 256 255 254 251 251 253 255 256 257 259 260 261 263 265 267 269 272 275 276 278 280 281 283 285 287 289 290 289 290 293 295 298 301 303 304 306 307 309 311 312 313 314 316 317 318 319 318 318 319 321 322 325 326 327
222 225 226 226 227 227 226 225 225 225 224 224 227 230 232 233 235 237 238 240 243 244 244 247 247 245 245 248 250 252 254 254 254 252 250 249 251 254 256 257 259 260 262 263 265 267 270 273 275 277 279 280 281 284 285 285 286 287 288 289 290 293 296 300 302 304 305 307 309 310 312 312 313 315 317 317 318 317 317 318 320 321 323 325 325
222 224 225 225 226 227 225 224 225 225 225 225 228 230 232 233 235 237 238 240 242 243 244 246 246 245 245 247 250 252 254 254 252 251 250 249 251 254 256 257 258 260 261 263 266 268 271 273 275 277 278 279 281 283 283 284 285 286 287 288 289 292 295 299 302 303 305 307 309 310 311 312 313 315 316 317 317 316 316 317 319 320 321 323 324
222 224 225 225 226 226 225 224 225 225 225 226 229 231 232 234 237 238 239 240 241 242 243 244 245 245 245 247 249 252 253 253 251 250 250 250 251 254 256 257 258 259 261 264 266 269 272 274 275 276 277 278 281 282 282 283 285 285 285 287 289 291 294 297 300 302 305 308 310 310 311 311 312 314 315 316 316 316 316 316 318 319 320 322 323
223 224 224 225 226 226 225 225 225 226 226 227 229 231 233 235 238 239 240 240 241 241 242 243 244 244 245 246 249 251 252 251 250 249 249 250 251 254 256 256 257 260 262 265 267 270 272 273 275 276 278 279 280 281 281 282 283 283 284 285 287 289 292 295 298 301 304 307 308 310 310 310 311 312 314 315 315 315 315 315 317 317 319 321 323
222 223 224 225 226 226 226 226 226 227 227 228 230 232 234 235 237 239 241 242 242 241 241 242 243 243 244 246 248 249 250 250 249 249 249 250 252 254 255 256 257 259 262 264 267 270 273 274 276 277 279 280 280 278 279 281 282 281 282 282 285 288 291 294 296 299 302 304 306 307 309 309 309 310 312 313 314 315 315 315 316 317 318 320 322
222 223 225 226 226 226 226 227 227 228 229 230 232 234 235 236 238 241 242 243 243 241 240 241 242 243 244 245 247 248 250 250 249 249 248 249 251 253 254 255 257 259 262 265 267 271 274 275 276 278 280 281 279 277 277 280 281 280 279 280 283 287 290 293 296 299 301 302 304 306 308 308 308 308 309 311 313 315 316 316 316 317 318 320 321
223 224 226 227 227 227 227 227 228 229 231 233 234 235 237 238 240 241 242 243 244 242 241 241 242 243 244 245 246 247 250 251 249 248 248 248 251 253 254 256 257 260 264 266 269 272 274 274 274 277 281 281 278 276 277 280 280 279 278 279 282 285 288 292 296 299 301 302 303 305 306 307 307 307 308 310 312 313 314 315 316 317 317 319 319
225 226 228 228 228 228 228 229 230 231 232 234 235 235 237 239 240 240 242 244 244 243 243 243 242 243 244 244 244 246 250 250 248 248 248 249 250 253 254 255 258 262 264 266 269 272 273 273 274 276 279 279 277 276 278 279 278 277 277 278 280 283 287 291 295 298 301 302 303 305 306 307 307 307 308 310 311 312 313 314 315 316 316 317 318
227 228 229 230 230 230 230 231 232 233 234 234 235 236 239 240 238 239 244 245 242 242 245 244 242 241 242 242 243 246 249 249 248 249 249 249 249 250 252 255 258 262 265 267 270 272 273 274 274 274 276 276 276 276 277 277 276 276 276 278 280 283 288 291 294 296 299 300 302 304 306 307 307 307 308 310 311 312 312 313 314 315 315 317 318
230 230 230 231 231 231 231 232 233 234 234 234 235 237 239 239 238 240 244 244 241 240 244 244 241 240 240 241 242 245 248 250 251 251 250 249 248 247 251 256 259 262 265 268 270 272 273 274 274 274 274 274 275 275 275 274 274 275 276 277 280 285 288 291 292 295 297 298 300 302 304 306 307 307 308 309 310 311 312 312 313 313 314 316 318
233 232 231 232 232 232 232 232 233 233 234 235 236 237 238 238 239 240 242 241 238 239 242 243 240 240 241 242 243 245 247 250 252 252 250 249 247 247 252 258 260 263 266 267 269 272 273 274 274 275 274 274 274 275 274 273 273 275 277 278 280 284 288 291 292 294 295 296 299 301 303 305 306 306 307 308 309 310 311 312 313 312 313 314 316
234 233 234 236 235 234 234 234 234 234 234 235 236 236 236 238 239 239 237 237 236 237 240 241 239 241 246 246 245 245 246 247 250 250 250 250 249 250 254 258 261 264 266 267 269 272 274 276 277 276 274 273 273 274 274 274 275 277 278 279 280 284 288 291 292 292 293 295 297 299 301 304 305 305 305 307 308 310 311 312 313 313 312 312 314
236 237 239 242 242 241 240 240 238 237 235 236 236 235 236 238 239 237 234 234 234 236 238 238 239 243 247 247 245 244 244 246 248 250 251 252 252 253 255 258 261 264 267 269 271 273 275 277 278 276 273 272 272 272 273 275 276 278 278 279 281 284 287 289 291 292 293 295 296 297 300 302 304 304 304 305 307 309 311 312 313 313 312 312 314
238 239 241 242 243 245 245 244 242 239 237 237 236 236 237 237 236 234 232 232 233 236 237 238 239 242 245 245 245 243 242 244 248 250 252 253 254 255 257 259 260 262 266 270 272 273 275 276 276 274 272 271 271 273 275 276 277 278 279 280 282 284 286 288 290 292 293 294 296 297 299 301 302 303 303 304 306 308 310 311 312 312 312 313 314
241 241 241 241 242 244 246 245 243 240 239 238 236 236 236 236 234 231 230 230 232 235 237 237 239 242 243 245 245 243 242 244 247 249 252 255 256 255 256 258 260 262 266 270 272 273 274 274 274 273 272 271 272 274 277 278 279 279 280 281 282 284 286 288 290 291 293 294 296 297 298 300 301 301 302 304 306 308 309 311 311 312 312 312 314
242 242 242 242 242 243 245 244 243 241 239 238 236 235 234 234 232 230 230 231 233 235 236 236 238 241 244 246 245 243 241 242 245 249 253 255 256 256 256 258 260 262 265 268 271 272 272 273 273 273 273 272 273 274 277 279 280 280 281 282 283 285 287 289 291 292 293 294 295 296 297 299 299 300 301 303 305 307 308 310 311 311 311 311 312
243 243 243 243 243 243 243 243 242 241 239 238 235 232 230 229 230 231 232 232 231 231 233 235 237 240 243 244 243 241 240 242 247 251 253 254 256 258 259 259 260 260 263 265 268 270 271 272 273 274 274 273 273 275 277 278 279 280 281 282 283 284 286 288 290 292 293 294 295 296 297 297 298 298 299 301 303 305 307 309 310 311 312 311 311
245 244 244 244 244 243 242 242 241 240 239 237 233 229 227 226 228 230 232 232 230 230 233 236 238 239 241 242 241 241 243 245 248 251 253 256 258 260 261 261 262 263 264 265 267 269 270 270 272 274 275 274 274 275 276 277 278 279 280 280 282 283 285 287 289 291 293 294 294 295 296 296 297 297 298 299 301 304 306 308 310 311 311 310 309
248 247 246 245 244 243 242 241 241 240 238 234 228 226 225 225 224 226 229 231 231 233 236 239 241 241 242 243 244 246 248 248 248 251 256 259 260 261 262 263 264 265 265 265 266 268 268 269 272 274 275 275 275 275 274 274 275 277 279 280 281 283 284 286 288 289 291 292 293 294 294 295 296 297 297 297 299 302 305 307 309 310 310 309 309
250 248 246 244 243 241 241 240 240 239 235 230 224 221 221 222 223 225 227 229 231 234 238 241 242 243 244 245 247 249 250 250 251 254 258 260 261 262 264 264 264 263 263 263 265 266 266 268 271 273 275 276 276 275 274 273 275 277 279 280 281 283 284 285 287 288 288 289 291 292 293 294 295 296 297 296 297 300 303 305 307 308 308 307 308
250 248 245 243 241 239 238 238 237 234 231 226 222 219 218 219 223 226 227 229 231 233 237 240 242 243 245 247 248 250 251 251 253 256 260 262 263 264 265 265 264 263 261 261 263 264 266 267 269 272 275 276 276 276 275 275 276 278 279 280 281 282 283 284 285 285 286 288 289 290 291 293 294 295 295 295 296 299 301 303 305 305 306 306 306
249 246 243 241 238 235 233 232 232 230 227 223 220 219 218 219 221 224 226 229 231 234 237 240 242 243 245 247 249 251 253 253 255 258 262 265 266 266 265 265 264 262 261 261 262 264 265 267 270 272 274 275 275 276 276 276 277 278 279 280 281 282 283 283 283 284 285 286 287 288 290 292 293 294 293 293 294 297 299 301 303 303 304 305 306
249 245 242 237 233 229 226 225 226 226 222 218 216 216 217 218 219 220 223 226 230 234 238 241 242 243 245 246 249 251 253 255 257 259 262 265 266 265 265 265 264 262 260 260 261 263 265 267 270 272 273 273 274 274 275 276 277 278 279 280 281 282 282 282 282 283 283 284 285 287 288 290 292 292 291 290 292 294 297 299 300 302 303 304 306
248 244 238 233 230 227 224 223 223 222 218 215 214 214 214 217 219 221 222 224 228 233 238 241 243 245 246 248 249 251 252 255 257 258 261 264 265 265 264 264 263 261 259 259 260 263 265 266 268 270 271 272 273 274 275 276 277 278 279 280 281 281 281 281 282 282 283 283 284 286 287 289 290 290 289 288 289 291 294 296 298 299 302 304 305
245 239 234 231 231 228 225 222 221 219 216 215 214 215 216 219 222 222 224 226 230 234 238 241 245 248 250 252 253 253 254 256 258 260 262 264 265 265 265 264 263 260 259 259 261 263 265 267 268 269 271 273 274 275 275 276 277 278 279 279 280 279 279 281 282 283 283 284 284 285 286 287 288 287 286 286 287 288 291 293 295 298 301 303 305
240 235 233 233 232 228 223 220 219 218 217 216 215 216 217 219 221 223 226 230 233 236 239 241 245 249 253 255 255 256 258 260 261 263 264 264 265 266 267 266 263 260 259 260 261 264 266 268 270 271 273 274 275 275 276 277 278 279 279 279 279 279 279 281 283 284 284 284 284 284 285 286 286 285 285 285 285 286 288 291 293 295 298 300 302
239 236 235 234 231 227 224 221 219 217 217 216 215 214 215 217 220 224 229 233 235 238 240 242 245 249 253 255 257 258 261 262 263 264 265 265 265 266 266 265 262 260 259 260 262 264 268 270 272 273 274 275 275 276 277 278 279 279 279 279 279 279 280 282 284 285 285 285 284 283 284 284 283 282 283 283 284 285 287 289 291 293 296 297 299
242 240 236 232 229 225 223 221 220 218 216 215 215 215 217 220 223 227 232 235 237 240 243 246 250 252 254 256 258 259 260 262 262 263 263 264 264 265 265 263 260 259 259 261 263 266 269 272 273 274 274 275 275 276 277 278 278 278 279 279 279 279 281 284 285 285 285 285 284 283 283 282 281 280 281 282 283 284 285 287 289 291 293 295 296
243 241 236 232 229 226 223 221 221 219 217 216 217 218 220 223 227 231 235 237 240 243 248 252 254 256 257 257 258 259 260 261 262 262 262 262 262 263 263 262 260 260 261 263 265 268 271 273 275 275 275 275 276 277 277 277 277 278 278 278 278 279 281 284 286 286 286 285 283 282 281 280 279 279 280 281 282 283 284 285 287 289 290 292 294
244 242 237 234 231 228 226 224 223 222 221 221 222 223 224 226 231 235 239 241 245 250 254 256 257 257 258 258 259 260 261 262 262 263 262 261 262 263 263 263 263 264 265 266 268 270 273 274 275 275 275 276 276 277 277 276 276 277 277 278 278 279 282 284 286 287 286 285 284 281 280 279 278 278 279 280 281 282 283 284 285 287 288 290 291
248 245 241 238 234 231 229 227 227 228 228 228 229 229 230 233 237 241 244 247 251 255 257 258 258 258 259 259 260 261 262 263 263 263 263 263 263 263 264 265 266 266 268 269 271 272 273 274 275 275 275 276 276 277 276 276 276 277 277 277 278 279 282 285 286 285 285 285 284 281 279 278 277 277 278 279 280 281 282 283 283 285 286 287 289
249 248 245 241 236 233 231 230 231 233 234 235 236 236 237 240 244 247 249 252 255 257 257 257 258 259 260 261 261 262 263 264 264 264 264 263 263 264 265 266 266 266 268 270 271 273 273 274 274 274 275 276 276 276 277 276 276 276 276 276 277 279 282 284 284 284 284 284 282 280 278 276 276 276 277 277 278 280 281 281 282 283 284 285 287
250 248 246 243 239 238 237 237 238 240 241 242 241 241 242 244 247 250 252 255 257 258 257 258 259 261 262 263 263 263 264 264 264 264 264 263 263 264 265 265 265 265 266 269 271 273 273 272 272 273 275 276 277 277 276 276 276 276 276 276 277 279 282 283 283 284 284 283 280 278 277 276 275 275 275 276 277 278 279 280 280 281 281 282 284
255 252 250 248 246 244 243 242 243 244 244 244 244 243 244 246 249 251 254 257 257 257 257 260 261 262 262 263 263 263 263 263 264 264 265 264 264 265 265 265 264 264 266 269 271 271 271 271 271 272 274 275 277 276 276 275 275 275 275 276 278 280 282 282 282 283 283 281 279 278 277 276 276 275 275 275 276 277 277 278 278 278 279 280 281
257 255 253 251 250 248 246 245 245 245 245 245 245 245 246 248 251 254 256 257 258 258 260 262 263 262 262 263 263 263 264 264 265 265 266 266 266 265 265 265 265 265 267 269 270 269 269 269 270 271 273 275 276 276 275 275 275 275 275 276 278 279 280 280 280 281 280 278 277 277 277 277 276 275 275 275 275 276 276 275 275 275 277 278 280
260 258 256 255 253 252 250 249 249 249 249 250 250 250 250 252 254 257 259 260 261 261 263 264 264 264 263 263 263 264 265 266 267 267 267 267 267 266 265 264 265 265 267 268 269 268 267 268 268 270 272 273 274 275 275 275 274 274 275 276 277 278 278 278 278 277 276 275 275 276 277 277 276 275 274 274 274 274 274 273 273 274 275 276 278
263 261 259 258 257 256 255 254 253 254 255 255 255 255 255 256 257 259 261 262 263 263 264 264 264 265 265 265 265 266 266 266 266 265 266 267 269 268 266 265 265 266 267 267 267 266 266 267 268 270 271 272 273 275 275 274 274 274 275 276 276 276 276 276 275 274 272 271 272 274 276 277 276 275 273 273 273 273 273 273 272 273 273 274 276
267 265 263 261 260 259 259 258 258 258 258 258 258 257 257 258 260 262 263 263 264 264 265 265 266 266 266 266 265 266 266 267 266 265 265 266 268 269 268 268 268 268 268 267 266 266 267 268 269 270 271 272 273 273 274 274 275 275 276 277 276 276 275 274 273 272 270 269 270 273 275 276 275 273 272 273 273 273 272 272 272 272 272 273 275
271 269 266 265 263 262 262 261 261 261 261 261 260 260 260 261 262 264 264 265 265 265 266 266 267 267 267 267 267 267 267 268 268 268 267 267 267 268 269 269 269 269 268 267 266 266 267 268 269 269 270 271 272 272 272 273 274 274 275 276 276 275 273 272 271 269 268 267 268 270 273 274 273 272 272 272 272 272 271 271 272 272 272 272 274
274 273 270 268 267 265 264 264 263 263 262 262 262 262 263 264 264 265 265 266 267 267 267 267 267 267 268 268 269 269 269 269 269 269 269 269 269 269 269 269 269 269 268 266 266 267 267 268 268 269 269 270 271 271 272 273 273 274 274 275 274 273 272 271 270 268 266 265 266 268 270 270 270 270 270 270 271 271 271 271 271 271 272 272 273